Location: Unspecified
(64.9000°N, 0.0000°E)
Time: 18:50:49
(UTC+00:00)

Transit 2A Rocket - Pass Details

Date: 21 June 2019
Orbit: 588 x 915 km, 66.7° (Epoch: 15 July)

Event Time Altitude Azimuth Distance (km) Brightness Sun altitude
Rises 19:48:26 0° 307° (NW) 3,379 10.6 10.7°
Reaches altitude 10° 19:52:00 10° 285° (WNW) 2,372 9.3 10.4°
Maximum altitude 19:54:55 15° 252° (WSW) 1,983 7.8 10.1°
Drops below altitude 10° 19:57:44 10° 219° (SW) 2,242 7.5 9.9°
Sets 20:00:57 0° 196° (SSW) 3,085 7.9 9.6°
